When you browse on this site, cookies collect data to enhance your experience and personalize the content and advertising you see.
Visit our Privacy Policy to learn more. By continuing to use the site, you agree to this use of cookies and data.
  • In France
  • List of Countries
  • For 7 days
  • Water Temperature
  • Weather Map
  • Weather Widgets
  • user-avatar
    Login

    Hourly Weather Bugojno

    Today, 22 September, Sunday

    Time Temperature Precipitation Wind Pressure Humidity
    00:00 +11°C° 0 mm 1 mps 715 mmHg 69%
    01:00 +11°C° 0 mm 1 mps 715 mmHg 70%
    02:00 +11°C° 0 mm 1 mps 714 mmHg 69%
    03:00 +11°C° 0 mm 1 mps 714 mmHg 67%
    04:00 +11°C° 0 mm 1 mps 714 mmHg 66%
    05:00 +11°C° 0 mm 1 mps 714 mmHg 64%
    06:00 +12°C° 0 mm 1 mps 714 mmHg 63%
    07:00 +13°C° 0 mm 1 mps 714 mmHg 61%
    08:00 +16°C° 0 mm 2 mps 714 mmHg 55%
    09:00 +18°C° 0 mm 2 mps 714 mmHg 48%
    10:00 +21°C° 0 mm 2 mps 715 mmHg 42%
    11:00 +23°C° 0 mm 2 mps 714 mmHg 41%
    12:00 +23°C° 0 mm 2 mps 714 mmHg 41%
    13:00 +24°C° 0 mm 2 mps 714 mmHg 40%
    14:00 +23°C° 0 mm 2 mps 713 mmHg 45%
    15:00 +21°C° 0 mm 2 mps 713 mmHg 50%
    16:00 +20°C° 0 mm 2 mps 712 mmHg 55%
    17:00 +18°C° 0 mm 2 mps 712 mmHg 59%
    18:00 +17°C° 0 mm 2 mps 712 mmHg 62%
    19:00 +15°C° 0 mm 2 mps 712 mmHg 66%
    20:00 +15°C° 0 mm 2 mps 712 mmHg 62%
    21:00 +16°C° 0 mm 2 mps 712 mmHg 58%
    22:00 +16°C° 0 mm 2 mps 711 mmHg 54%
    23:00 +16°C° 0 mm 2 mps 711 mmHg 54%

    Tomorrow, 23 September, Monday

    Time Temperature Precipitation Wind Pressure Humidity
    00:00 +15°C° 0 mm 2 mps 711 mmHg 54%
    01:00 +15°C° 0 mm 2 mps 711 mmHg 54%
    02:00 +15°C° 0.1 mm 2 mps 711 mmHg 61%
    03:00 +15°C° 0.1 mm 2 mps 710 mmHg 68%
    04:00 +15°C° 0.1 mm 2 mps 710 mmHg 75%
    05:00 +15°C° 0.8 mm 2 mps 710 mmHg 81%
    06:00 +15°C° 0.8 mm 2 mps 710 mmHg 87%
    07:00 +15°C° 0.8 mm 2 mps 710 mmHg 93%
    08:00 +15°C° 2.5 mm 2 mps 710 mmHg 95%
    09:00 +15°C° 2.5 mm 2 mps 710 mmHg 96%
    10:00 +15°C° 2.5 mm 2 mps 710 mmHg 97%
    11:00 +17°C° 0.3 mm 2 mps 710 mmHg 93%
    12:00 +18°C° 0.3 mm 2 mps 710 mmHg 89%
    13:00 +20°C° 0.3 mm 2 mps 710 mmHg 85%
    14:00 +20°C° 0.1 mm 2 mps 709 mmHg 84%
    15:00 +20°C° 0.1 mm 2 mps 709 mmHg 84%
    16:00 +20°C° 0.1 mm 2 mps 709 mmHg 83%
    17:00 +19°C° 0.3 mm 2 mps 708 mmHg 88%
    18:00 +18°C° 0.3 mm 2 mps 708 mmHg 92%
    19:00 +16°C° 0.3 mm 2 mps 708 mmHg 96%
    20:00 +16°C° 0.5 mm 2 mps 708 mmHg 96%
    21:00 +16°C° 0.5 mm 1 mps 708 mmHg 96%
    22:00 +16°C° 0.5 mm 1 mps 707 mmHg 97%
    23:00 +16°C° 4.5 mm 1 mps 707 mmHg 97%

    Day after tomorrow, 24 September, Tuesday

    Time Temperature Precipitation Wind Pressure Humidity
    00:00 +15°C° 4.5 mm 2 mps 707 mmHg 97%
    01:00 +15°C° 4.5 mm 2 mps 707 mmHg 97%
    02:00 +14°C° 2.3 mm 2 mps 707 mmHg 97%
    03:00 +13°C° 2.3 mm 1 mps 707 mmHg 97%
    04:00 +12°C° 2.3 mm 1 mps 706 mmHg 96%
    05:00 +13°C° 0 mm 1 mps 707 mmHg 96%
    06:00 +13°C° 0 mm 1 mps 707 mmHg 96%
    07:00 +14°C° 0 mm 1 mps 707 mmHg 96%
    08:00 +15°C° 0.1 mm 1 mps 708 mmHg 93%
    09:00 +16°C° 0.1 mm 1 mps 708 mmHg 89%
    10:00 +18°C° 0.1 mm 1 mps 708 mmHg 85%
    11:00 +17°C° 0.1 mm 2 mps 708 mmHg 85%
    12:00 +17°C° 0.1 mm 2 mps 708 mmHg 85%
    13:00 +17°C° 0.1 mm 2 mps 708 mmHg 84%
    14:00 +17°C° 0.1 mm 2 mps 708 mmHg 84%
    15:00 +17°C° 0.1 mm 2 mps 708 mmHg 83%
    16:00 +18°C° 0.1 mm 1 mps 708 mmHg 82%
    17:00 +16°C° 0 mm 1 mps 707 mmHg 87%
    18:00 +14°C° 0 mm 1 mps 707 mmHg 91%
    19:00 +13°C° 0 mm 1 mps 707 mmHg 96%
    20:00 +12°C° 0 mm 0 mps 707 mmHg 96%
    21:00 +12°C° 0 mm 0 mps 707 mmHg 96%
    22:00 +12°C° 0 mm 0 mps 708 mmHg 96%
    23:00 +11°C° 0 mm 0 mps 707 mmHg 96%

    25 September, Wednesday

    Time Temperature Precipitation Wind Pressure Humidity
    00:00 +11°C° 0 mm 0 mps 707 mmHg 96%
    01:00 +11°C° 0 mm 0 mps 707 mmHg 95%
    02:00 +11°C° 0 mm 0 mps 707 mmHg 95%
    03:00 +11°C° 0 mm 0 mps 707 mmHg 94%
    04:00 +11°C° 0 mm 0 mps 707 mmHg 93%
    05:00 +11°C° 0 mm 0 mps 707 mmHg 92%
    06:00 +13°C° 0 mm 1 mps 707 mmHg 91%
    07:00 +14°C° 0 mm 1 mps 707 mmHg 89%
    08:00 +16°C° 0 mm 1 mps 707 mmHg 82%
    09:00 +19°C° 0 mm 1 mps 708 mmHg 75%
    10:00 +21°C° 0 mm 1 mps 708 mmHg 67%
    11:00 +22°C° 0 mm 1 mps 708 mmHg 65%
    12:00 +22°C° 0 mm 1 mps 708 mmHg 63%
    13:00 +23°C° 0 mm 1 mps 708 mmHg 62%
    14:00 +21°C° 0.3 mm 2 mps 707 mmHg 67%
    15:00 +20°C° 0.3 mm 2 mps 707 mmHg 73%
    16:00 +19°C° 0.3 mm 2 mps 707 mmHg 79%
    17:00 +18°C° 0.2 mm 2 mps 707 mmHg 83%
    18:00 +17°C° 0.2 mm 2 mps 707 mmHg 87%
    19:00 +16°C° 0.2 mm 1 mps 707 mmHg 91%
    20:00 +15°C° 0 mm 2 mps 707 mmHg 92%
    21:00 +15°C° 0 mm 2 mps 707 mmHg 93%
    22:00 +14°C° 0 mm 2 mps 707 mmHg 94%
    23:00 +14°C° 0 mm 2 mps 707 mmHg 94%

    26 September, Thursday

    Time Temperature Precipitation Wind Pressure Humidity
    00:00 +14°C° 0 mm 1 mps 707 mmHg 94%
    01:00 +14°C° 0 mm 1 mps 707 mmHg 94%
    02:00 +14°C° 0 mm 1 mps 708 mmHg 94%
    03:00 +14°C° 0 mm 1 mps 708 mmHg 94%
    04:00 +14°C° 0 mm 1 mps 708 mmHg 94%
    05:00 +14°C° 0.1 mm 1 mps 708 mmHg 95%
    06:00 +14°C° 0.1 mm 1 mps 709 mmHg 95%
    07:00 +14°C° 0.1 mm 1 mps 709 mmHg 95%
    08:00 +15°C° 0.1 mm 1 mps 710 mmHg 93%
    09:00 +15°C° 0.1 mm 1 mps 710 mmHg 91%
    10:00 +16°C° 0.1 mm 1 mps 711 mmHg 89%
    11:00 +16°C° 0.2 mm 1 mps 711 mmHg 87%
    12:00 +17°C° 0.2 mm 2 mps 711 mmHg 85%
    13:00 +17°C° 0.2 mm 2 mps 711 mmHg 83%
    14:00 +18°C° 0.1 mm 1 mps 711 mmHg 82%
    15:00 +18°C° 0.1 mm 1 mps 711 mmHg 81%
    16:00 +18°C° 0.1 mm 1 mps 711 mmHg 79%
    17:00 +16°C° 0 mm 1 mps 711 mmHg 84%
    18:00 +14°C° 0 mm 1 mps 711 mmHg 89%
    19:00 +12°C° 0 mm 0 mps 711 mmHg 94%
    20:00 +11°C° 0 mm 0 mps 711 mmHg 94%
    21:00 +11°C° 0 mm 0 mps 711 mmHg 95%
    22:00 +10°C° 0 mm 0 mps 711 mmHg 95%
    23:00 +10°C° 0 mm 0 mps 711 mmHg 94%

    27 September, Friday

    Time Temperature Precipitation Wind Pressure Humidity
    00:00 +10°C° 0 mm 0 mps 711 mmHg 93%
    01:00 +10°C° 0 mm 0 mps 711 mmHg 93%
    02:00 +10°C° 0 mm 0 mps 711 mmHg 91%
    03:00 +10°C° 0 mm 0 mps 711 mmHg 90%
    04:00 +10°C° 0 mm 0 mps 711 mmHg 88%
    05:00 +11°C° 0 mm 0 mps 711 mmHg 86%
    06:00 +12°C° 0 mm 0 mps 712 mmHg 83%
    07:00 +12°C° 0 mm 0 mps 712 mmHg 80%
    08:00 +15°C° 0 mm 0 mps 712 mmHg 70%
    09:00 +18°C° 0 mm 0 mps 713 mmHg 61%
    10:00 +20°C° 0 mm 0 mps 713 mmHg 51%
    11:00 +21°C° 0 mm 0 mps 713 mmHg 49%
    12:00 +24°C° 0 mm 1 mps 713 mmHg 46%
    13:00 +25°C° 0 mm 1 mps 713 mmHg 44%
    14:00 +24°C° 0 mm 1 mps 712 mmHg 49%
    15:00 +24°C° 0 mm 1 mps 712 mmHg 54%
    16:00 +23°C° 0 mm 1 mps 712 mmHg 58%
    17:00 +21°C° 0 mm 1 mps 712 mmHg 65%
    18:00 +18°C° 0 mm 1 mps 712 mmHg 72%
    19:00 +15°C° 0 mm 1 mps 711 mmHg 79%
    20:00 +15°C° 0 mm 1 mps 712 mmHg 81%
    21:00 +14°C° 0 mm 1 mps 712 mmHg 82%
    22:00 +14°C° 0 mm 1 mps 712 mmHg 84%
    23:00 +14°C° 0 mm 1 mps 712 mmHg 85%
    Show more